Flag for Germany Weather past 2 weeks in Öhringen, Baden-Württemberg, Germany

Now
97 °F

Sunny.


Feels Like: 98 °F
Forecast: 68 / 97 °F
Wind: 2 mph from West

Location: Oehringen

Current Time: Jul 4, 2015 at 5:35:02 PM

Latest Report: Jul 4, 2015 at 5:00 PM


Visibility: 15 mi

Pressure: 30.04 "Hg

Humidity: 33%

Dew point: 63 °F

Location of ÖhringenLocation

Historic Weather in Öhringen — Graph

°F

Öhringen temperature yesterday

Maximum temperature yesterday: 95 °F (at 6:00 PM)
Minimum temperature yesterday: 72 °F (at 5:00 AM)
Average temperature yesterday: 84 °F

Past Weeks' High & Low Weather Summary

 TemperatureHumidityPressure
High96 °F (Jul 4, 4:00 PM)98% (Jun 27, 11:00 AM)30.24 "Hg (Jun 27, 11:00 AM)
Low49 °F (Jun 23, 7:00 AM)29% (Jun 30, 6:00 PM)29.75 "Hg (Jun 23, 2:00 AM)
Average67 °F68%30.10 "Hg
* Reported Jun 19 4:00 PM — Jul 4 4:00 PM, Öhringen, Weather by CustomWeather, © 2015

Note: Actual official high and low records may vary slightly from our data, if they occured in-between our weather recording intervals... More about our weather records

Advertising

Öhringen weather history for previous 24 hours

 ConditionsComfort  
Time TempWeatherWind HumidityBarometerVisibility
4:00 PM
Sat, Jul 4
96 °FSunny.3 mph33%30.05 "Hg16 mi
3:00 PM95 °FSunny.2 mph38%30.06 "Hg16 mi
2:00 PM93 °FSunny.3 mph38%30.08 "Hg16 mi
1:00 PM92 °FSunny.2 mph39%30.09 "Hg16 mi
12:00 PM91 °FSunny.3 mph40%30.09 "Hg17 mi
11:00 AM89 °FSunny.2 mph45%30.10 "Hg19 mi
10:00 AM85 °FSunny.2 mph52%30.11 "Hg15 mi
9:00 AM82 °FSunny.1 mph56%30.11 "Hg16 mi
8:00 AM76 °FSunny.2 mph68%30.13 "Hg11 mi
7:00 AM72 °FSunny.2 mph75%30.13 "Hg11 mi
6:00 AM71 °FSunny.1 mph79%30.13 "Hg9 mi
5:00 AM72 °FClear.2 mph77%30.12 "Hg10 mi
4:00 AM74 °FClear.2 mph77%30.14 "Hg8 mi
3:00 AM75 °FClear.2 mph77%30.14 "Hg9 mi
2:00 AM76 °FClear.1 mph77%30.15 "Hg8 mi
1:00 AM78 °FClear.1 mph73%30.16 "Hg8 mi
12:00 AM78 °FClear.2 mph72%30.15 "Hg7 mi
11:00 PM
Fri, Jul 3
81 °FClear.1 mph72%30.15 "Hg9 mi
10:00 PM83 °FClear.1 mph68%30.14 "Hg9 mi
9:00 PM87 °FScattered clouds.2 mph61%30.13 "Hg9 mi
8:00 PM93 °FScattered clouds.1 mph38%30.12 "Hg14 mi
7:00 PM93 °FScattered clouds.2 mph36%30.13 "Hg14 mi
6:00 PM95 °FScattered clouds.2 mph38%30.13 "Hg12 mi
5:00 PM93 °FPartly sunny.2 mph37%30.14 "Hg13 mi
Weather by CustomWeather, © 2015

See weather overviewHow to use our weather pages